パンスターズ彗星

P/2016 J1 ( PanSTARRS ) 2022

English version
Home page
Updated on February 6, 2022

---------------------------------------------------------------------

・ プロフィール

・ 軌道要素

Epoch 2022 Mar. 2.0 TT = JDT 2459640.5
T 2022 Feb. 20.70304 TT                                 MPCW
q   2.4496797            (2000.0)            P               Q
n   0.17445416     Peri.   46.98778     -0.40166591     +0.91193690
a   3.1721119      Node   199.81131     -0.89563292     -0.41028473
e   0.2277449      Incl.   14.32872     -0.19106588     +0.00612637
P   5.65
From 71 observations 2016 Mar. 4-Aug. 4, mean residual 0".3.

・ 光度変化

        m1 = 16.5 + 5 logΔ + 10.0 log r

---------------------------------------------------------------------

軌道要素はM.P.E.C. 2018-D91に掲載されたものです。
光度グラフはComet for Windowsで作成したものです。

---------------------------------------------------------------------

Copyright(C) Seiichi Yoshida (comet@aerith.net). All rights reserved.